ARG1544 SABE-SACO

Flight info

Callsign ARG1544
Flight time N/A
Altitude 32000
Route ATOVO4B ATOVO UW5 ASISA ASISA1Q
Aircraft B738/M-SDE2E3FGHIRWXY/LB1

Departure

Time N/A
Airport Aeroparque Jorge Newbery (SABE)

Arrival

Time 2026-05-03 21:00
Airport Ingeniero Aeronáutico Ambrosio L.V. Taravella International Airport (SACO)
Time Latitude Longitude Altitude Speed Heading
2026-05-03 20:15 -33.09501 -60.46664 32094 ft 416 kts 298°
2026-05-03 20:15 -33.06151 -60.52233 32088 ft 413 kts 298°
2026-05-03 20:16 -33.02802 -60.57798 32067 ft 415 kts 298°
2026-05-03 20:16 -32.99435 -60.63379 32067 ft 416 kts 298°
2026-05-03 20:17 -32.96057 -60.68968 32063 ft 416 kts 298°
2026-05-03 20:17 -32.92683 -60.74540 32062 ft 416 kts 298°
2026-05-03 20:18 -32.89493 -60.80200 32064 ft 409 kts 294°
2026-05-03 20:18 -32.86609 -60.86022 32063 ft 410 kts 293°
2026-05-03 20:19 -32.83738 -60.91859 32065 ft 410 kts 293°
2026-05-03 20:19 -32.80854 -60.97684 32080 ft 410 kts 293°
2026-05-03 20:20 -32.77967 -61.03505 32077 ft 410 kts 293°
2026-05-03 20:20 -32.75086 -61.09309 32069 ft 407 kts 294°
2026-05-03 20:21 -32.72211 -61.15094 32078 ft 408 kts 294°
2026-05-03 20:21 -32.69325 -61.20893 32072 ft 410 kts 294°
2026-05-03 20:22 -32.66425 -61.26706 32069 ft 410 kts 294°
2026-05-03 20:22 -32.63527 -61.32505 32072 ft 409 kts 294°
2026-05-03 20:23 -32.60634 -61.38290 32061 ft 407 kts 294°
2026-05-03 20:23 -32.57747 -61.44053 32069 ft 408 kts 294°
2026-05-03 20:24 -32.54852 -61.49823 32054 ft 408 kts 294°
2026-05-03 20:24 -32.51949 -61.55598 32064 ft 409 kts 294°
2026-05-03 20:25 -32.49037 -61.61383 32060 ft 409 kts 294°
2026-05-03 20:25 -32.46127 -61.67154 32058 ft 409 kts 294°
2026-05-03 20:26 -32.43213 -61.72925 32056 ft 409 kts 294°
2026-05-03 20:26 -32.40299 -61.78686 32055 ft 409 kts 294°
2026-05-03 20:27 -32.37381 -61.84448 32049 ft 410 kts 294°
2026-05-03 20:27 -32.34450 -61.90225 32055 ft 411 kts 294°
2026-05-03 20:28 -32.31525 -61.95980 32050 ft 405 kts 294°
2026-05-03 20:28 -32.28642 -62.01654 32055 ft 404 kts 294°
2026-05-03 20:29 -32.25761 -62.07319 32051 ft 402 kts 294°
2026-05-03 20:29 -32.22877 -62.12973 32033 ft 403 kts 294°
2026-05-03 20:30 -32.19985 -62.18637 32046 ft 404 kts 294°
2026-05-03 20:30 -32.17087 -62.24303 32043 ft 403 kts 294°
2026-05-03 20:31 -32.14199 -62.29940 32043 ft 403 kts 294°
2026-05-03 20:31 -32.12749 -62.32771 31654 ft 405 kts 294°
2026-05-03 20:31 -32.11297 -62.35602 31170 ft 404 kts 294°
2026-05-03 20:31 -32.09847 -62.38421 30704 ft 402 kts 295°
2026-05-03 20:32 -32.08403 -62.41228 30249 ft 401 kts 295°
2026-05-03 20:32 -32.06963 -62.44027 29752 ft 399 kts 295°
2026-05-03 20:32 -32.05532 -62.46807 29277 ft 396 kts 295°
2026-05-03 20:32 -32.04110 -62.49567 28830 ft 393 kts 295°
2026-05-03 20:33 -32.02698 -62.52307 28388 ft 391 kts 295°
2026-05-03 20:33 -32.01295 -62.55028 27944 ft 388 kts 295°
2026-05-03 20:33 -31.99899 -62.57731 27505 ft 386 kts 295°
2026-05-03 20:33 -31.98512 -62.60418 27069 ft 384 kts 295°
2026-05-03 20:34 -31.97131 -62.63090 26636 ft 382 kts 295°
2026-05-03 20:34 -31.95755 -62.65750 26208 ft 380 kts 295°
2026-05-03 20:34 -31.94385 -62.68396 25754 ft 379 kts 295°
2026-05-03 20:34 -31.93020 -62.71032 25344 ft 377 kts 295°
2026-05-03 20:35 -31.91659 -62.73658 24915 ft 376 kts 296°
2026-05-03 20:35 -31.90301 -62.76276 24489 ft 375 kts 296°
2026-05-03 20:35 -31.88947 -62.78885 24048 ft 374 kts 296°
2026-05-03 20:35 -31.87596 -62.81486 23637 ft 373 kts 296°
2026-05-03 20:36 -31.86247 -62.84080 23167 ft 372 kts 296°
2026-05-03 20:36 -31.84905 -62.86659 22722 ft 369 kts 296°
2026-05-03 20:36 -31.83572 -62.89221 22305 ft 367 kts 296°
2026-05-03 20:36 -31.82247 -62.91764 21890 ft 364 kts 296°
2026-05-03 20:37 -31.80930 -62.94292 21478 ft 362 kts 296°
2026-05-03 20:37 -31.79620 -62.96804 21069 ft 360 kts 297°
2026-05-03 20:37 -31.78316 -62.99302 20662 ft 358 kts 297°
2026-05-03 20:37 -31.77019 -63.01787 20255 ft 357 kts 297°
2026-05-03 20:38 -31.75727 -63.04258 19849 ft 355 kts 297°
2026-05-03 20:38 -31.74441 -63.06718 19453 ft 353 kts 297°
2026-05-03 20:38 -31.73160 -63.09167 19052 ft 352 kts 297°
2026-05-03 20:38 -31.71884 -63.11604 18645 ft 350 kts 297°
2026-05-03 20:39 -31.70613 -63.14029 18238 ft 349 kts 298°
2026-05-03 20:39 -31.69348 -63.16441 17816 ft 346 kts 298°
2026-05-03 20:39 -31.68092 -63.18834 17411 ft 343 kts 298°
2026-05-03 20:39 -31.66847 -63.21205 17023 ft 340 kts 298°
2026-05-03 20:40 -31.65658 -63.23583 16638 ft 337 kts 296°
2026-05-03 20:40 -31.64562 -63.25987 16251 ft 333 kts 295°
2026-05-03 20:40 -31.63507 -63.28387 15874 ft 330 kts 295°
2026-05-03 20:40 -31.62446 -63.30758 15500 ft 328 kts 296°
2026-05-03 20:41 -31.61369 -63.33095 15128 ft 325 kts 296°
2026-05-03 20:41 -31.60288 -63.35405 14760 ft 322 kts 296°
2026-05-03 20:41 -31.59217 -63.37696 14398 ft 319 kts 296°
2026-05-03 20:41 -31.58163 -63.39971 14041 ft 317 kts 296°
2026-05-03 20:42 -31.57121 -63.42228 13660 ft 314 kts 296°
2026-05-03 20:42 -31.56089 -63.44462 13289 ft 310 kts 296°
2026-05-03 20:42 -31.55067 -63.46665 12923 ft 306 kts 296°
2026-05-03 20:42 -31.54060 -63.48835 12580 ft 302 kts 296°
2026-05-03 20:43 -31.52872 -63.50838 12241 ft 300 kts 311°
2026-05-03 20:43 -31.51207 -63.52300 11925 ft 302 kts 329°
2026-05-03 20:43 -31.49207 -63.53037 11629 ft 305 kts 348°
2026-05-03 20:43 -31.47077 -63.53255 11404 ft 311 kts 353°
2026-05-03 20:44 -31.44906 -63.53457 11254 ft 315 kts 352°
2026-05-03 20:44 -31.42734 -63.53675 11161 ft 313 kts 352°
2026-05-03 20:44 -31.40554 -63.53908 10963 ft 318 kts 351°
2026-05-03 20:44 -31.38351 -63.54117 10708 ft 318 kts 352°
2026-05-03 20:45 -31.36173 -63.54322 10459 ft 311 kts 353°
2026-05-03 20:45 -31.34033 -63.54530 10208 ft 308 kts 354°
2026-05-03 20:45 -31.31914 -63.54750 9953 ft 306 kts 352°
2026-05-03 20:45 -31.29801 -63.54956 9675 ft 303 kts 352°
2026-05-03 20:46 -31.27721 -63.55193 9399 ft 299 kts 351°
2026-05-03 20:46 -31.25674 -63.55407 9128 ft 293 kts 353°
2026-05-03 20:46 -31.23657 -63.55626 9042 ft 289 kts 351°
2026-05-03 20:46 -31.21674 -63.55811 9034 ft 285 kts 352°
2026-05-03 20:47 -31.19704 -63.56210 8990 ft 295 kts 339°
2026-05-03 20:47 -31.17912 -63.57349 8811 ft 292 kts 320°
2026-05-03 20:47 -31.16602 -63.59086 8630 ft 284 kts 301°
2026-05-03 20:47 -31.15908 -63.61229 8448 ft 285 kts 281°
2026-05-03 20:48 -31.15905 -63.63547 8288 ft 290 kts 263°
2026-05-03 20:48 -31.16601 -63.65767 8106 ft 297 kts 243°
2026-05-03 20:48 -31.17927 -63.67628 7942 ft 303 kts 223°
2026-05-03 20:48 -31.19739 -63.68896 7770 ft 309 kts 204°
2026-05-03 20:49 -31.21828 -63.69505 7602 ft 312 kts 193°
2026-05-03 20:49 -31.23910 -63.69931 7421 ft 296 kts 192°
2026-05-03 20:49 -31.25899 -63.70334 7231 ft 288 kts 192°
2026-05-03 20:49 -31.27867 -63.70731 7019 ft 285 kts 192°
2026-05-03 20:50 -31.29805 -63.71121 6807 ft 282 kts 192°
2026-05-03 20:50 -31.31728 -63.71506 6598 ft 280 kts 192°
2026-05-03 20:50 -31.33644 -63.71887 6383 ft 280 kts 192°
2026-05-03 20:50 -31.35560 -63.72268 6139 ft 279 kts 192°
2026-05-03 20:51 -31.37436 -63.72640 6035 ft 268 kts 192°
2026-05-03 20:51 -31.39221 -63.73160 5944 ft 266 kts 213°
2026-05-03 20:51 -31.40498 -63.74590 5815 ft 249 kts 247°
2026-05-03 20:51 -31.40977 -63.76441 5651 ft 233 kts 269°
2026-05-03 20:52 -31.41142 -63.78313 5468 ft 231 kts 271°
2026-05-03 20:52 -31.41285 -63.80178 5273 ft 230 kts 271°
2026-05-03 20:52 -31.41437 -63.82037 5099 ft 230 kts 270°
2026-05-03 20:52 -31.41602 -63.83878 5037 ft 227 kts 270°
2026-05-03 20:53 -31.41771 -63.85730 5024 ft 231 kts 270°
2026-05-03 20:53 -31.41943 -63.87642 5018 ft 244 kts 270°
2026-05-03 20:53 -31.42122 -63.89639 5006 ft 247 kts 270°
2026-05-03 20:53 -31.42306 -63.91626 5000 ft 245 kts 270°
2026-05-03 20:54 -31.42488 -63.93621 4994 ft 247 kts 270°
2026-05-03 20:54 -31.42845 -63.97591 5007 ft 246 kts 270°
2026-05-03 20:54 -31.43022 -63.99582 4999 ft 248 kts 270°
2026-05-03 20:55 -31.43202 -64.01602 4990 ft 249 kts 270°
2026-05-03 20:55 -31.43382 -64.03575 4993 ft 240 kts 270°
2026-05-03 20:55 -31.43497 -64.05485 5005 ft 231 kts 275°
2026-05-03 20:55 -31.43501 -64.07350 5002 ft 229 kts 274°
2026-05-03 20:56 -31.43498 -64.09207 4991 ft 227 kts 274°
2026-05-03 20:56 -31.43496 -64.11030 4912 ft 221 kts 274°
2026-05-03 20:56 -31.43498 -64.12761 4806 ft 204 kts 275°
2026-05-03 20:56 -31.43500 -64.14370 4483 ft 194 kts 275°
2026-05-03 20:57 -31.43402 -64.15881 4027 ft 178 kts 293°
2026-05-03 20:57 -31.42735 -64.16938 3614 ft 152 kts 330°
2026-05-03 20:57 -31.41909 -64.17558 3542 ft 137 kts 334°
2026-05-03 20:57 -31.41065 -64.18142 3198 ft 152 kts 335°
2026-05-03 20:58 -31.40162 -64.18763 2784 ft 150 kts 334°
2026-05-03 20:58 -31.39281 -64.19375 2503 ft 141 kts 336°
2026-05-03 20:58 -31.38480 -64.19939 2518 ft 135 kts 336°
2026-05-03 20:58 -31.37598 -64.20449 2488 ft 146 kts 346°
2026-05-03 20:59 -31.36630 -64.20675 2350 ft 140 kts 359°
2026-05-03 20:59 -31.35669 -64.20746 2208 ft 138 kts
2026-05-03 20:59 -31.34708 -64.20775 2034 ft 141 kts
2026-05-03 20:59 -31.33668 -64.20789 1858 ft 155 kts
2026-05-03 21:00 -31.32613 -64.20811 1707 ft 147 kts
2026-05-03 21:00 -31.32277 -64.20818 1653 ft 143 kts
2026-05-03 21:00 -31.31271 -64.20828 1616 ft 13 kts 11°
2026-05-03 21:00 -31.31209 -64.20819 1617 ft 4 kts 321°
2026-05-03 21:01 -31.31212 -64.20833 1615 ft 3 kts 237°
2026-05-03 21:01 -31.31276 -64.20836 1618 ft 15 kts 174°
2026-05-03 21:01 -31.31379 -64.20832 1617 ft 14 kts 180°
2026-05-03 21:01 -31.31452 -64.20866 1618 ft 10 kts 233°
2026-05-03 21:02 -31.31464 -64.20939 1613 ft 8 kts 266°
2026-05-03 21:02 -31.31468 -64.20994 1612 ft 7 kts 262°
2026-05-03 21:02 -31.31485 -64.21041 1614 ft 6 kts 232°
2026-05-03 21:02 -31.31517 -64.21069 1613 ft 5 kts 204°
2026-05-03 21:03 -31.31544 -64.21092 1619 ft 4 kts 240°
2026-05-03 21:03 -31.31546 -64.21121 1619 ft 3 kts 270°
2026-05-03 21:03 -31.31549 -64.21146 1618 ft 3 kts 262°
2026-05-03 21:03 -31.31551 -64.21167 1612 ft 0 kts 259°
2026-05-03 21:18 -31.31552 -64.21168 1613 ft 0 kts 267°